| time (UTC) | temp F | wind direction | speed MPH | gust MPH | rain 1hr in | rain 24hr in | rain mn in | humidity % | barometer mb |
| 20260507183012 | 49 | 32 | 4.0 | 9.0 | 0.00 | 0.00 | 0.00 | 71 | 1015.7 |
| 20260507181511 | 49 | 49 | 2.0 | 6.0 | 0.00 | 0.00 | 0.00 | 71 | 1015.5 |
| 20260507180013 | 49 | 11 | 1.0 | 6.0 | 0.00 | 0.00 | 0.00 | 72 | 1015.5 |
| 20260507174510 | 50 | 54 | 4.0 | 12.0 | 0.00 | 0.00 | 0.00 | 70 | 1015.4 |
| 20260507173006 | 50 | 34 | 3.0 | 9.0 | 0.00 | 0.00 | 0.00 | 70 | 1015.3 |
| 20260507171506 | 50 | 40 | 2.0 | 10.0 | 0.00 | 0.00 | 0.00 | 70 | 1015.2 |
| 20260507170006 | 50 | 28 | 1.0 | 11.0 | 0.00 | 0.00 | 0.00 | 70 | 1015.2 |
| 20260507164504 | 50 | 25 | 4.0 | 12.0 | 0.00 | 0.00 | 0.00 | 70 | 1015.0 |
| 20260507163003 | 50 | 42 | 5.0 | 12.0 | 0.00 | 0.00 | 0.00 | 69 | 1015.0 |
| 20260507161502 | 50 | 44 | 7.0 | 13.0 | 0.00 | 0.00 | 0.00 | 68 | 1015.0 |
| 20260507160002 | 50 | 59 | 3.0 | 12.0 | 0.00 | 0.00 | 0.00 | 69 | 1014.9 |
| 20260507154600 | 51 | 10 | 7.0 | 14.0 | 0.00 | 0.00 | 0.00 | 68 | 1014.9 |
| 20260507153101 | 51 | 45 | 5.0 | 14.0 | 0.00 | 0.00 | 0.00 | 68 | 1014.7 |
| 20260507151556 | 51 | 62 | 4.0 | 15.0 | 0.00 | 0.00 | 0.00 | 67 | 1014.5 |
| 20260507150056 | 51 | 13 | 3.0 | 14.0 | 0.00 | 0.00 | 0.00 | 67 | 1014.5 |
| 20260507144553 | 52 | 26 | 4.0 | 13.0 | 0.00 | 0.00 | 0.00 | 67 | 1014.4 |
| 20260507143052 | 52 | 360 | 7.0 | 14.0 | 0.00 | 0.00 | 0.00 | 66 | 1014.2 |
| 20260507141555 | 52 | 28 | 3.0 | 14.0 | 0.00 | 0.00 | 0.00 | 65 | 1014.2 |
| 20260507140107 | 53 | 30 | 6.0 | 13.0 | 0.00 | 0.00 | 0.00 | 64 | 1014.3 |
| 20260507134550 | 53 | 59 | 5.0 | 13.0 | 0.00 | 0.01 | 0.00 | 65 | 1014.2 |
| 20260507133049 | 53 | 56 | 3.0 | 14.0 | 0.00 | 0.01 | 0.00 | 64 | 1014.1 |
| 20260507131548 | 54 | 44 | 3.0 | 11.0 | 0.00 | 0.01 | 0.00 | 62 | 1014.0 |
| 20260507130046 | 54 | 34 | 7.0 | 12.0 | 0.00 | 0.01 | 0.00 | 60 | 1013.9 |
| 20260507124544 | 54 | 35 | 3.0 | 13.0 | 0.00 | 0.02 | 0.00 | 59 | 1013.7 |
| 20260507123043 | 55 | 46 | 2.0 | 14.0 | 0.00 | 0.02 | 0.00 | 57 | 1013.5 |
| 20260507121542 | 54 | 89 | 4.0 | 13.0 | 0.00 | 0.02 | 0.00 | 57 | 1013.5 |
| 20260507120040 | 54 | 61 | 3.0 | 15.0 | 0.00 | 0.02 | 0.00 | 56 | 1013.4 |
| 20260507114539 | 55 | 55 | 5.0 | 14.0 | 0.00 | 0.06 | 0.00 | 53 | 1013.3 |
| 20260507113040 | 56 | 55 | 5.0 | 14.0 | 0.00 | 0.06 | 0.00 | 51 | 1013.3 |
| 20260507111539 | 56 | 40 | 7.0 | 14.0 | 0.00 | 0.06 | 0.00 | 55 | 1013.2 |
| 20260507110034 | 55 | 44 | 7.0 | 18.0 | 0.00 | 0.06 | 0.00 | 57 | 1013.1 |
| 20260507104535 | 57 | 57 | 5.0 | 14.0 | 0.00 | 0.10 | 0.00 | 58 | 1013.0 |
| 20260507103028 | 55 | 46 | 7.0 | 17.0 | 0.00 | 0.10 | 0.00 | 58 | 1012.9 |
| 20260507101540 | 55 | 39 | 8.0 | 15.0 | 0.00 | 0.10 | 0.00 | 62 | 1012.8 |
| 20260507100031 | 54 | 45 | 4.0 | 14.0 | 0.00 | 0.10 | 0.00 | 66 | 1012.8 |
| 20260507094523 | 54 | 74 | 6.0 | 17.0 | 0.00 | 0.15 | 0.00 | 65 | 1012.6 |
| 20260507093027 | 54 | 19 | 7.0 | 18.0 | 0.00 | 0.15 | 0.00 | 63 | 1012.5 |
| 20260507091541 | 55 | 62 | 9.0 | 14.0 | 0.00 | 0.15 | 0.00 | 67 | 1012.4 |
| 20260507090013 | 54 | 38 | 12.0 | 16.0 | 0.00 | 0.15 | 0.00 | 69 | 1012.4 |
| 20260507084509 | 53 | 42 | 7.0 | 18.0 | 0.00 | 0.17 | 0.00 | 75 | 1012.4 |
| 20260507083004 | 51 | 36 | 7.0 | 17.0 | 0.00 | 0.17 | 0.00 | 76 | 1012.3 |
| 20260507081602 | 49 | 47 | 9.0 | 15.0 | 0.00 | 0.17 | 0.00 | 78 | 1012.3 |
| 20260507080057 | 49 | 46 | 10.0 | 20.0 | 0.00 | 0.17 | 0.00 | 79 | 1012.2 |
| 20260507074555 | 47 | 34 | 8.0 | 14.0 | 0.00 | 0.20 | 0.00 | 84 | 1012.1 |
| 20260507073101 | 46 | 69 | 8.0 | 15.0 | 0.00 | 0.20 | 0.00 | 85 | 1011.9 |
| 20260507071547 | 45 | 37 | 7.0 | 17.0 | 0.00 | 0.20 | 0.00 | 86 | 1011.9 |
| 20260507070114 | 44 | 34 | 7.0 | 15.0 | 0.00 | 0.20 | 0.00 | 87 | 1011.9 |
| 20260507064546 | 44 | 34 | 9.0 | 19.0 | 0.00 | 0.26 | 0.00 | 87 | 1011.7 |
| 20260507063038 | 44 | 28 | 8.0 | 16.0 | 0.00 | 0.26 | 0.00 | 88 | 1011.7 |
| 20260507061536 | 43 | 53 | 7.0 | 12.0 | 0.00 | 0.26 | 0.00 | 88 | 1011.6 |
| 20260507060033 | 43 | 44 | 5.0 | 12.0 | 0.00 | 0.26 | 0.00 | 87 | 1011.3 |
| 20260507054531 | 43 | 26 | 5.0 | 16.0 | 0.00 | 0.37 | 0.00 | 87 | 1011.3 |
| 20260507053028 | 42 | 34 | 5.0 | 14.0 | 0.00 | 0.37 | 0.00 | 87 | 1011.4 |
| 20260507051527 | 42 | 71 | 7.0 | 18.0 | 0.00 | 0.37 | 0.00 | 86 | 1011.1 |
| 20260507050031 | 43 | 60 | 9.0 | 19.0 | 0.00 | 0.37 | 0.00 | 84 | 1011.0 |
| 20260507044538 | 43 | 35 | 9.0 | 15.0 | 0.00 | 0.43 | 0.00 | 83 | 1010.8 |
| 20260507043018 | 43 | 57 | 9.0 | 15.0 | 0.00 | 0.43 | 0.00 | 83 | 1010.5 |
| 20260507041517 | 43 | 22 | 5.0 | 12.0 | 0.00 | 0.43 | 0.00 | 83 | 1010.4 |
| 20260507040017 | 43 | 22 | 5.0 | 12.0 | 0.00 | 0.43 | 0.00 | 83 | 1010.2 |
| 20260507034514 | 43 | 51 | 5.0 | 10.0 | 0.00 | 0.44 | 0.00 | 83 | 1010.2 |
| 20260507033012 | 43 | 31 | 5.0 | 10.0 | 0.00 | 0.44 | 0.00 | 84 | 1010.0 |
| 20260507031508 | 43 | 5 | 5.0 | 9.0 | 0.00 | 0.44 | 0.00 | 84 | 1009.8 |
| 20260507030005 | 43 | 30 | 4.0 | 10.0 | 0.00 | 0.44 | 0.00 | 85 | 1009.8 |
| 20260507024502 | 43 | 36 | 5.0 | 9.0 | 0.00 | 0.44 | 0.00 | 86 | 1009.8 |
| 20260507023100 | 43 | 22 | 4.0 | 12.0 | 0.00 | 0.44 | 0.00 | 86 | 1009.7 |
| 20260507021616 | 43 | 38 | 9.0 | 16.0 | 0.00 | 0.44 | 0.00 | 85 | 1009.7 |
| 20260507020106 | 43 | 38 | 5.0 | 15.0 | 0.00 | 0.44 | 0.00 | 85 | 1009.7 |
| 20260507014613 | 43 | 42 | 9.0 | 15.0 | 0.00 | 0.44 | 0.00 | 84 | 1009.6 |
| 20260507013055 | 43 | 18 | 9.0 | 15.0 | 0.00 | 0.44 | 0.00 | 83 | 1009.3 |
| 20260507011551 | 43 | 41 | 9.0 | 16.0 | 0.00 | 0.44 | 0.00 | 81 | 1009.2 |
| 20260507004549 | 43 | 51 | 5.0 | 12.0 | 0.00 | 0.44 | 0.00 | 80 | 1009.0 |
| 20260507003046 | 43 | 42 | 5.0 | 11.0 | 0.00 | 0.44 | 0.00 | 80 | 1009.3 |
| 20260507001550 | 43 | 35 | 5.0 | 10.0 | 0.00 | 0.44 | 0.00 | 80 | 1009.2 |
| 20260507000044 | 42 | 34 | 3.0 | 9.0 | 0.00 | 0.44 | 0.00 | 81 | 1009.2 |
| 20260506234540 | 43 | 42 | 4.0 | 11.0 | 0.00 | 0.44 | 0.00 | 82 | 1008.7 |
| 20260506233038 | 43 | 44 | 5.0 | 14.0 | 0.00 | 0.44 | 0.00 | 81 | 1008.8 |
| 20260506231536 | 43 | 94 | 5.0 | 14.0 | 0.00 | 0.44 | 0.00 | 80 | 1008.7 |
| 20260506230036 | 43 | 34 | 5.0 | 12.0 | 0.00 | 0.44 | 0.00 | 80 | 1008.7 |
| 20260506224535 | 43 | 40 | 9.0 | 18.0 | 0.00 | 0.44 | 0.00 | 80 | 1008.8 |
| 20260506223031 | 43 | 41 | 7.0 | 12.0 | 0.00 | 0.44 | 0.00 | 80 | 1008.5 |
| 20260506221527 | 43 | 66 | 4.0 | 12.0 | 0.00 | 0.44 | 0.00 | 80 | 1008.8 |
| 20260506220029 | 43 | 5 | 5.0 | 10.0 | 0.00 | 0.44 | 0.00 | 80 | 1008.7 |
| 20260506214521 | 43 | 53 | 5.0 | 12.0 | 0.00 | 0.44 | 0.44 | 80 | 1008.7 |
| 20260506213019 | 43 | 54 | 3.0 | 12.0 | 0.00 | 0.44 | 0.44 | 79 | 1008.5 |
| 20260506211517 | 43 | 65 | 8.0 | 17.0 | 0.00 | 0.44 | 0.44 | 79 | 1008.1 |
| 20260506210018 | 43 | 44 | 10.0 | 19.0 | 0.00 | 0.44 | 0.44 | 78 | 1007.9 |
| 20260506204516 | 43 | 61 | 5.0 | 15.0 | 0.00 | 0.44 | 0.44 | 78 | 1008.1 |
| 20260506203012 | 43 | 54 | 7.0 | 12.0 | 0.00 | 0.44 | 0.44 | 79 | 1008.0 |
| 20260506201511 | 43 | 62 | 7.0 | 15.0 | 0.00 | 0.44 | 0.44 | 80 | 1008.0 |
| 20260506200010 | 43 | 36 | 7.0 | 11.0 | 0.00 | 0.44 | 0.44 | 80 | 1007.8 |
| 20260506194507 | 43 | 40 | 6.0 | 15.0 | 0.00 | 0.44 | 0.44 | 80 | 1007.9 |
| 20260506193006 | 43 | 50 | 5.0 | 12.0 | 0.00 | 0.44 | 0.44 | 80 | 1008.0 |
| 20260506191505 | 43 | 36 | 4.0 | 8.0 | 0.00 | 0.44 | 0.44 | 80 | 1007.9 |
| 20260506190058 | 44 | 28 | 5.0 | 13.0 | 0.00 | 0.44 | 0.44 | 81 | 1007.6 |
| 20260506184602 | 44 | 49 | 4.0 | 10.0 | 0.00 | 0.44 | 0.44 | 81 | 1007.6 |